Flag for United Arab Emirates Weather past 2 weeks in Dubai, Dubai, United Arab Emirates

Now
102 °F

Passing clouds.


Feels Like: 108 °F
Forecast: 94 / 107 °F
Wind: 7 mph from East

Location: Dubai International Airport

Current Time: Aug 29, 2015 at 11:32:51 PM

Latest Report: Aug 29, 2015 at 11:00 PM


Visibility: N/A

Pressure: 29.59 "Hg

Humidity: 33%

Dew point: 68 °F

Historic Weather in Dubai — Graph

°F

Dubai temperature yesterday

Maximum temperature yesterday: 104 °F (at 11:00 AM)
Minimum temperature yesterday: 91 °F (at 5:00 AM)
Average temperature yesterday: 96 °F

Past Weeks' High & Low Weather Summary

 TemperatureHumidityPressure
High111 °F (Aug 15, 1:00 PM)80% (Aug 28, 6:00 AM)29.68 "Hg (Aug 28, 6:00 AM)
Low88 °F (Aug 15, 7:00 AM)12% (Aug 27, 11:00 AM)29.50 "Hg (Aug 15, 2:00 AM)
Average99 °F37%29.57 "Hg
* Reported Aug 14 10:00 PM — Aug 29 10:00 PM, Dubai, Weather by CustomWeather, © 2015

Note: Actual official high and low records may vary slightly from our data, if they occured in-between our weather recording intervals... More about our weather records

Advertising

Dubai weather history for previous 24 hours

 ConditionsComfort  
Time TempWeatherWind HumidityBarometerVisibility
10:00 PM
Sat, Aug 29
102 °FPassing clouds.7 mph31%29.59 "HgN/A
9:00 PM102 °FPassing clouds.7 mph33%29.59 "HgN/A
8:00 PM104 °FPassing clouds.8 mph35%29.56 "HgN/A
7:00 PM104 °FClear.8 mph35%29.56 "Hg4 mi
6:00 PM106 °FClear.9 mph30%29.53 "Hg5 mi
5:00 PM104 °FClear.13 mph35%29.53 "Hg5 mi
4:00 PM104 °FClear.15 mph35%29.53 "Hg5 mi
3:00 PM106 °FClear.15 mph34%29.53 "Hg5 mi
2:00 PM108 °FClear.14 mph26%29.56 "Hg5 mi
1:00 PM111 °FClear.6 mph18%29.59 "Hg5 mi
11:00 AM106 °FClear.6 mph25%29.62 "Hg5 mi
10:00 AM102 °FClear.6 mph31%29.62 "Hg5 mi
9:00 AM99 °FClear.7 mph42%29.62 "Hg4 mi
8:00 AM93 °FDuststorm.5 mph67%29.62 "Hg2 mi
7:00 AM91 °FHaze.5 mph75%29.59 "Hg2 mi
6:00 AM93 °FHaze.6 mph63%29.56 "Hg2 mi
5:00 AM93 °FHaze.6 mph67%29.56 "Hg3 mi
4:00 AM91 °FClear.8 mph75%29.53 "Hg4 mi
3:00 AM93 °FClear.5 mph59%29.53 "Hg5 mi
2:00 AM95 °FClear.6 mph53%29.56 "Hg5 mi
1:00 AM95 °FClear.6 mph60%29.56 "Hg5 mi
12:00 AM97 °FClear.6 mph56%29.56 "Hg5 mi
11:00 PM
Fri, Aug 28
97 °FClear.6 mph56%29.59 "Hg5 mi
Weather by CustomWeather, © 2015

See weather overviewHow to use our weather pages